• In Hungary
  • List of Countries
  • For 7 days
  • Water Temperature
  • Satellite Maps
  • Weather Map
  • News
  • Weather Widgets
  • user-avatar
    Login

    Hourly Weather Karpos

    Today, 23 September, Sunday

    Time Temperature Precipitation Wind Pressure Humidity
    00:00 +17°C° 0 mm 2 mps 716 mmHg 75%
    01:00 +16°C° 0 mm 2 mps 716 mmHg 77%
    02:00 +16°C° 0 mm 2 mps 716 mmHg 78%
    03:00 +15°C° 0 mm 1 mps 716 mmHg 78%
    04:00 +15°C° 0 mm 1 mps 716 mmHg 79%
    05:00 +16°C° 0 mm 1 mps 716 mmHg 73%
    06:00 +19°C° 0 mm 1 mps 717 mmHg 67%
    07:00 +20°C° 0 mm 1 mps 717 mmHg 58%
    08:00 +23°C° 0 mm 1 mps 717 mmHg 51%
    09:00 +25°C° 0 mm 1 mps 717 mmHg 43%
    10:00 +28°C° 0 mm 1 mps 718 mmHg 36%
    11:00 +29°C° 0 mm 1 mps 717 mmHg 33%
    12:00 +30°C° 0 mm 1 mps 717 mmHg 30%
    13:00 +31°C° 0 mm 1 mps 717 mmHg 29%
    14:00 +31°C° 0 mm 1 mps 717 mmHg 28%
    15:00 +31°C° 0 mm 1 mps 717 mmHg 28%
    16:00 +30°C° 0 mm 1 mps 717 mmHg 28%
    17:00 +28°C° 0 mm 1 mps 716 mmHg 34%
    18:00 +25°C° 0 mm 1 mps 716 mmHg 40%
    19:00 +22°C° 0 mm 1 mps 716 mmHg 46%
    20:00 +22°C° 0 mm 1 mps 716 mmHg 48%
    21:00 +21°C° 0 mm 1 mps 716 mmHg 49%
    22:00 +20°C° 0 mm 1 mps 715 mmHg 51%
    23:00 +20°C° 0 mm 1 mps 715 mmHg 52%

    Tomorrow, 24 September, Monday

    Time Temperature Precipitation Wind Pressure Humidity
    00:00 +18°C° 0 mm 2 mps 715 mmHg 54%
    01:00 +18°C° 0 mm 2 mps 714 mmHg 55%
    02:00 +18°C° 0 mm 2 mps 714 mmHg 56%
    03:00 +17°C° 0 mm 2 mps 713 mmHg 57%
    04:00 +17°C° 0 mm 2 mps 713 mmHg 59%
    05:00 +18°C° 0 mm 2 mps 713 mmHg 55%
    06:00 +20°C° 0 mm 1 mps 713 mmHg 51%
    07:00 +22°C° 0 mm 1 mps 713 mmHg 47%
    08:00 +24°C° 0 mm 1 mps 713 mmHg 42%
    09:00 +26°C° 0 mm 2 mps 714 mmHg 36%
    10:00 +29°C° 0 mm 2 mps 714 mmHg 30%
    11:00 +28°C° 0 mm 4 mps 714 mmHg 32%
    12:00 +28°C° 0 mm 5 mps 714 mmHg 35%
    13:00 +27°C° 0 mm 7 mps 715 mmHg 37%
    14:00 +23°C° 0 mm 7 mps 715 mmHg 43%
    15:00 +20°C° 0 mm 7 mps 715 mmHg 49%
    16:00 +16°C° 0 mm 7 mps 715 mmHg 54%
    17:00 +14°C° 0 mm 6 mps 716 mmHg 60%
    18:00 +12°C° 0 mm 5 mps 716 mmHg 65%
    19:00 +10°C° 0 mm 4 mps 717 mmHg 71%
    20:00 +10°C° 0 mm 4 mps 717 mmHg 73%
    21:00 +8°C° 0 mm 4 mps 718 mmHg 75%
    22:00 +9°C° 0 mm 3 mps 718 mmHg 77%
    23:00 +8°C° 0 mm 3 mps 719 mmHg 78%

    Day after tomorrow, 25 September, Tuesday

    Time Temperature Precipitation Wind Pressure Humidity
    00:00 +8°C° 0 mm 3 mps 719 mmHg 78%
    01:00 +7°C° 0 mm 3 mps 719 mmHg 79%
    02:00 +7°C° 0 mm 3 mps 719 mmHg 79%
    03:00 +5°C° 0 mm 3 mps 719 mmHg 79%
    04:00 +5°C° 0 mm 3 mps 720 mmHg 79%
    05:00 +7°C° 0 mm 3 mps 720 mmHg 73%
    06:00 +7°C° 0 mm 4 mps 720 mmHg 66%
    07:00 +8°C° 0 mm 4 mps 721 mmHg 60%
    08:00 +10°C° 0 mm 4 mps 721 mmHg 51%
    09:00 +12°C° 0 mm 5 mps 721 mmHg 43%
    10:00 +14°C° 0 mm 5 mps 721 mmHg 34%
    11:00 +15°C° 0 mm 5 mps 721 mmHg 32%
    12:00 +15°C° 0 mm 6 mps 721 mmHg 30%
    13:00 +16°C° 0 mm 6 mps 720 mmHg 28%
    14:00 +16°C° 0 mm 6 mps 720 mmHg 29%
    15:00 +15°C° 0 mm 6 mps 720 mmHg 30%
    16:00 +14°C° 0 mm 6 mps 720 mmHg 30%
    17:00 +12°C° 0 mm 5 mps 720 mmHg 36%
    18:00 +10°C° 0 mm 4 mps 721 mmHg 42%
    19:00 +7°C° 0 mm 3 mps 721 mmHg 48%
    20:00 +5°C° 0 mm 3 mps 722 mmHg 50%
    21:00 +6°C° 0 mm 2 mps 722 mmHg 53%
    22:00 +5°C° 0 mm 2 mps 723 mmHg 55%
    23:00 +4°C° 0 mm 2 mps 723 mmHg 57%

    26 September, Wednesday

    Time Temperature Precipitation Wind Pressure Humidity
    00:00 +4°C° 0 mm 2 mps 723 mmHg 58%
    01:00 +4°C° 0 mm 2 mps 723 mmHg 59%
    02:00 +3°C° 0 mm 2 mps 723 mmHg 62%
    03:00 +3°C° 0 mm 2 mps 723 mmHg 64%
    04:00 +3°C° 0 mm 2 mps 723 mmHg 67%
    05:00 +4°C° 0 mm 2 mps 723 mmHg 62%
    06:00 +5°C° 0 mm 2 mps 724 mmHg 57%
    07:00 +6°C° 0 mm 2 mps 724 mmHg 53%
    08:00 +9°C° 0 mm 3 mps 724 mmHg 46%
    09:00 +11°C° 0 mm 4 mps 724 mmHg 39%
    10:00 +13°C° 0 mm 4 mps 724 mmHg 32%
    11:00 +14°C° 0 mm 5 mps 724 mmHg 29%
    12:00 +15°C° 0 mm 5 mps 723 mmHg 26%
    13:00 +16°C° 0 mm 5 mps 723 mmHg 23%
    14:00 +16°C° 0 mm 6 mps 723 mmHg 24%
    15:00 +15°C° 0 mm 6 mps 722 mmHg 25%
    16:00 +15°C° 0 mm 6 mps 722 mmHg 27%
    17:00 +12°C° 0 mm 5 mps 722 mmHg 32%
    18:00 +10°C° 0 mm 4 mps 723 mmHg 38%
    19:00 +7°C° 0 mm 3 mps 723 mmHg 44%
    20:00 +7°C° 0 mm 3 mps 723 mmHg 45%
    21:00 +6°C° 0 mm 2 mps 724 mmHg 46%
    22:00 +5°C° 0 mm 2 mps 724 mmHg 47%
    23:00 +4°C° 0 mm 2 mps 724 mmHg 48%

    27 September, Thursday

    Time Temperature Precipitation Wind Pressure Humidity
    00:00 +4°C° 0 mm 2 mps 723 mmHg 48%
    01:00 +4°C° 0 mm 2 mps 723 mmHg 48%
    02:00 +4°C° 0 mm 2 mps 723 mmHg 49%
    03:00 +3°C° 0 mm 2 mps 723 mmHg 49%
    04:00 +3°C° 0 mm 2 mps 722 mmHg 50%
    05:00 +5°C° 0 mm 2 mps 722 mmHg 46%
    06:00 +6°C° 0 mm 2 mps 722 mmHg 42%
    07:00 +8°C° 0 mm 2 mps 722 mmHg 37%
    08:00 +10°C° 0 mm 3 mps 722 mmHg 32%
    09:00 +13°C° 0 mm 4 mps 721 mmHg 26%
    10:00 +17°C° 0 mm 4 mps 721 mmHg 21%
    11:00 +17°C° 0 mm 5 mps 720 mmHg 19%
    12:00 +19°C° 0 mm 5 mps 720 mmHg 18%
    13:00 +20°C° 0 mm 6 mps 719 mmHg 17%
    14:00 +20°C° 0 mm 6 mps 719 mmHg 18%
    15:00 +19°C° 0 mm 6 mps 718 mmHg 19%
    16:00 +19°C° 0 mm 6 mps 718 mmHg 20%
    17:00 +15°C° 0 mm 5 mps 718 mmHg 26%
    18:00 +12°C° 0 mm 4 mps 718 mmHg 32%
    19:00 +9°C° 0 mm 3 mps 718 mmHg 38%
    20:00 +8°C° 0 mm 3 mps 717 mmHg 40%
    21:00 +8°C° 0 mm 2 mps 717 mmHg 42%
    22:00 +7°C° 0 mm 2 mps 717 mmHg 45%
    23:00 +6°C° 0 mm 2 mps 717 mmHg 46%

    28 September, Friday

    Time Temperature Precipitation Wind Pressure Humidity
    00:00 +6°C° 0 mm 2 mps 717 mmHg 47%
    01:00 +5°C° 0 mm 2 mps 716 mmHg 48%
    02:00 +5°C° 0 mm 2 mps 716 mmHg 48%
    03:00 +5°C° 0 mm 2 mps 716 mmHg 48%
    04:00 +5°C° 0 mm 2 mps 716 mmHg 49%
    05:00 +6°C° 0 mm 2 mps 716 mmHg 44%
    06:00 +8°C° 0 mm 2 mps 716 mmHg 40%
    07:00 +9°C° 0 mm 2 mps 716 mmHg 36%
    08:00 +13°C° 0 mm 2 mps 716 mmHg 30%
    09:00 +16°C° 0 mm 2 mps 715 mmHg 24%
    10:00 +18°C° 0 mm 2 mps 715 mmHg 18%
    11:00 +20°C° 0 mm 3 mps 715 mmHg 17%
    12:00 +21°C° 0 mm 3 mps 715 mmHg 16%
    13:00 +22°C° 0 mm 3 mps 714 mmHg 15%
    14:00 +22°C° 0 mm 3 mps 714 mmHg 15%
    15:00 +22°C° 0 mm 3 mps 714 mmHg 16%
    16:00 +22°C° 0 mm 3 mps 714 mmHg 17%
    17:00 +19°C° 0 mm 2 mps 714 mmHg 22%
    18:00 +16°C° 0 mm 2 mps 714 mmHg 26%
    19:00 +13°C° 0 mm 2 mps 714 mmHg 31%
    20:00 +12°C° 0 mm 2 mps 714 mmHg 32%
    21:00 +12°C° 0 mm 2 mps 714 mmHg 34%
    22:00 +11°C° 0 mm 1 mps 714 mmHg 35%
    23:00 +10°C° 0 mm 1 mps 714 mmHg 36%
    Show more